Location: Unspecified
(0.0000°N, 0.0000°E)
Time: 21:32:59
(UTC+00:00)

Explorer 7 - Pass Details

Date: 21 June 2025
Orbit: 444 x 569 km, 50.3° (Epoch: 12 July)

Event Time Altitude Azimuth Distance (km) Brightness Sun altitude
Rises 22:34:06 0° 319° (NW) 2,452 - -58.3°
Reaches altitude 10° 22:36:12 10° 316° (NW) 1,596 - -58.6°
Maximum altitude 22:39:46 66° 233° (SW) 516 - -59.2°
Drops below altitude 10° 22:43:31 10° 150° (SSE) 1,669 - -59.8°
Sets 22:45:45 0° 147° (SSE) 2,576 - -60.1°
